User: anonymous   Login
Location: Obersdorf
(47.4079°N, 10.2781°E)
Time: 07:00:41
(UTC+01:00)
Language:

XW-2F - Orbit

View from above orbital plane
View from above orbital plane
View from above satellite
View from above satellite

Ground track
Ground track

The orbit data is extracted from the following two-line orbital elements,

1 40910U 15049M   21338.82431861  .00003810  00000-0  18024-3 0  9993
2 40910  97.4743 342.3275 0012517 300.7328 183.0749 15.19915552343594
Epoch (UTC): 04 December 2021 19:47:01
Eccentricity: 0.0012517
inclination: 97.4743°
perigee height: 497 km
apogee height: 515 km
right ascension of ascending node: 342.3275°
argument of perigee: 300.7328°
revolutions per day: 15.19915552
mean anomaly at epoch: 183.0749°
orbit number at epoch: 34359

The dashed part of the orbit path shows where the satellite is in the earth's shadow,  

DLR